Location: *
(49.5156°N, 3.8403°E)
Time: 15:28:46
(UTC+00:00)

Daily predictions for brighter satellites

Satellite Brightness Start Highest point End
(mag) Time Altitude Azimuth Time Altitude Azimuth Time Altitude Azimuth
USA 229 DEB 3.7 17:41:49 10° SSW 17:48:18 69° SE 17:55:10 10° NE
USA 229 3.7 17:41:55 10° SSW 17:48:24 68° SE 17:55:15 10° NE
Cosmos 1805 Rocket 3.9 17:45:19 10° SSW 17:49:41 74° W 17:54:04 10° N
Cosmos 1470 Rocket 4.4 17:46:35 10° SSE 17:50:21 29° E 17:54:10 10° NNE
STARLINK-54 3.6 17:46:24 10° WSW 17:50:26 85° SSE 17:54:28 10° ENE
STARLINK-1025 3.1 17:47:29 10° WSW 17:50:47 72° SSE 17:54:05 10° ENE
STARLINK-75 3.3 17:48:13 10° WSW 17:51:36 68° NNW 17:55:01 10° ENE
STARLINK-77 3.6 17:47:52 10° WSW 17:51:53 83° SSE 17:55:56 10° ENE
STARLINK-1017 3.0 17:49:09 10° WSW 17:52:27 73° SSE 17:55:45 10° ENE
STARLINK-22 3.2 17:49:13 10° WSW 17:52:35 76° NNW 17:55:57 10° ENE
STARLINK-25 3.6 17:49:31 10° WSW 17:53:33 84° SSE 17:57:36 10° ENE
STARLINK-41 3.2 17:50:42 10° WSW 17:54:03 72° NNW 17:57:25 10° ENE
Cosmos 1862 Rocket 3.7 17:50:40 10° N 17:54:54 50° ENE 17:59:08 10° SSE
Cosmos 2242 Rocket 4.3 17:51:02 10° N 17:55:09 33° ENE 17:59:16 10° SE
STARLINK-71 3.6 17:51:24 10° WSW 17:55:25 90° W 17:59:29 10° ENE
NOSS 3-1 (A) 3.6 17:50:17 10° SSW 17:55:35 49° ESE 18:01:44 10° NE
COSMO-SKYMED 1 2.5 17:51:20 10° NNE 17:55:42 70° ESE 18:00:01 10° S
STARLINK-1034 4.5 17:52:13 10° SSW 17:55:59 34° SE 17:59:45 10° ENE
STARLINK-52 3.3 17:53:12 10° WNW 17:56:34 74° SSW 17:59:56 10° ESE
STARLINK-79 3.5 17:52:49 10° WSW 17:56:51 87° SSE 18:00:54 10° ENE
Cosmos 1707 Rocket 3.9 17:52:50 10° NNW 17:57:18 74° W 18:01:45 10° S
STARLINK-1048 3.0 17:54:12 10° WSW 17:57:31 79° SSE 18:00:50 10° ENE
STARLINK-78 3.6 17:54:30 10° WSW 17:58:31 89° S 18:02:34 10° ENE
Okean-O 3.3 17:54:17 10° S 17:58:39 61° WSW 18:03:05 10° NNW
Cosmos 2297 4.4 17:53:34 10° SW 17:59:07 57° NW 18:04:42 10° NNE
STARLINK-1049 3.0 17:55:54 10° WSW 17:59:13 80° SSE 18:02:33 10° ENE
CENTAUR R/B 4.1 17:53:59 10° NW 18:00:07 29° N 18:07:01 10° ENE
STARLINK-57 3.6 17:56:15 10° WSW 18:00:17 88° NNW 18:04:20 10° ENE
FALCON 9 DEB 3.7 17:57:22 10° WNW 18:00:45 56° SSW 18:04:08 10° SE
STARLINK-1068 4.4 17:57:07 10° SSW 18:00:56 37° SE 18:04:39 11° ENE
STARLINK-1051 3.0 17:57:38 10° WSW 18:00:57 82° SSE 18:04:14 10° ENE
STARLINK-64 3.4 17:57:44 10° WSW 18:01:19 70° NNW 18:04:55 10° ENE
STARLINK-1028 3.0 17:58:02 10° WSW 18:01:20 83° SSE 18:04:37 10° ENE
STARLINK-49 3.5 17:57:47 10° WSW 18:01:50 88° N 18:05:52 10° ENE
Cosmos 1812 2.7 17:58:29 10° N 18:02:23 88° E 18:06:15 10° S
STARLINK-1021 3.0 17:59:47 10° WSW 18:03:07 85° SSE 18:06:19 11° ENE
STARLINK-26 3.8 17:59:58 10° W 18:03:20 47° N 18:06:33 11° ENE
STARLINK-27 3.6 17:59:27 10° WSW 18:03:28 87° NNW 18:07:27 10° ENE
Cosmos 2369 Rocket 2.3 17:58:23 10° S 18:03:55 59° ESE 18:09:31 10° NE
STARLINK-1019 3.0 18:01:33 10° WSW 18:04:53 87° SSE 18:08:02 11° ENE
STARLINK-74 3.6 18:01:06 10° WSW 18:05:08 86° NNW 18:09:03 11° ENE
Cosmos 921 Rocket 3.1 18:00:54 10° SSW 18:05:25 77° ESE 18:09:57 10° NNE
Ariane Rocket 3.6 18:01:13 10° SE 18:05:46 34° ENE 18:10:22 10° N
STARLINK-1012 3.0 18:03:21 10° WSW 18:06:41 89° SSE 18:09:46 12° ENE
STARLINK-39 3.6 18:02:45 10° WSW 18:06:48 84° NNW 18:10:38 11° ENE
Okean 1-7 4.1 18:04:38 10° NNE 18:08:11 24° ENE 18:11:44 10° SE
STARLINK-31 3.6 18:04:25 10° WSW 18:08:27 83° NNW 18:12:14 12° ENE
STARLINK-1026 3.0 18:06:55 10° WSW 18:10:16 88° NNW 18:13:12 13° ENE
STARLINK-69 3.6 18:06:15 10° WSW 18:10:17 79° NNW 18:14:00 12° ENE
STARLINK-1014 3.1 18:07:11 10° WSW 18:10:40 81° SSE 18:13:43 13° ENE
STARLINK-1060 4.2 18:06:54 10° SW 18:10:49 42° SE 18:14:13 13° ENE
STARLINK-21 3.6 18:07:45 10° WSW 18:11:47 80° NNW 18:15:26 12° ENE
Cosmos 1703 Rocket 4.4 18:07:50 10° N 18:11:49 30° ENE 18:15:46 10° SE
ATLAS 3B R/B 4.1 18:06:40 10° NW 18:11:53 24° N 18:17:12 10° NE
STARLINK-1013 3.0 18:08:44 10° WSW 18:12:05 86° NNW 18:14:58 13° ENE
SJ-6B 4.4 18:11:06 13° E 18:12:44 16° ENE 18:15:07 10° NNE
STARLINK-45 3.6 18:09:36 10° WSW 18:13:38 75° NNW 18:17:13 13° ENE
STARLINK-1009 3.0 18:10:32 10° WSW 18:13:53 84° NNW 18:16:41 14° ENE
CZ-2D R/B 3.2 18:10:49 10° SSE 18:14:42 76° ENE 18:18:36 10° N
STARLINK-70 3.6 18:11:12 10° WSW 18:15:14 76° NNW 18:18:45 13° ENE
Cosmos 1833 4.2 18:09:26 10° NNW 18:15:14 70° ENE 18:20:56 10° SE
STARLINK-1015 3.1 18:12:22 10° WSW 18:15:43 83° NNW 18:18:28 15° ENE
STARLINK-1030 4.1 18:11:52 10° SW 18:15:49 45° SE 18:19:02 15° ENE
STARLINK-76 3.6 18:12:43 10° WSW 18:16:46 77° NNW 18:20:13 14° ENE
STARLINK-23 3.6 18:14:23 10° WSW 18:18:24 76° NNW 18:21:48 14° ENE
STARLINK-32 3.6 18:16:03 10° WSW 18:20:04 74° NNW 18:23:24 15° ENE
NOSS 2-3 (C) 3.9 18:16:13 10° SSW 18:20:27 52° ESE 18:25:28 10° NE
SJ 16-02 2.2 18:16:40 10° N 18:20:35 30° ENE 18:23:52 13° ESE
STARLINK-1020 4.0 18:16:46 10° SW 18:20:45 48° SSE 18:23:47 16° ENE
STARLINK-40 3.7 18:17:41 10° WSW 18:21:44 73° NNW 18:24:58 15° ENE
Orbus 7S? 4.2 18:13:22 10° WSW 18:21:44 76° NNW 18:25:07 12° NE
Cosmos 1862 4.4 18:18:01 10° SSW 18:21:53 49° WNW 18:25:46 10° N
STARLINK-1047 3.9 18:19:08 10° SW 18:23:10 51° SSE 18:26:11 17° ENE
STARLINK-44 3.7 18:19:22 10° WSW 18:23:23 72° NNW 18:26:35 16° ENE
FREGAT/IRIS 3.9 18:23:34 19° ENE 18:23:34 19° ENE 18:25:31 10° NNE
Cosmos 1937 Rocket 4.3 18:19:58 10° N 18:24:41 31° NE 18:28:21 15° ESE
H-2A R/B 2.7 18:20:05 10° SE 18:24:59 36° ENE 18:29:56 10° N
STARLINK-37 3.7 18:21:08 10° WSW 18:25:09 70° NNW 18:28:16 16° ENE
STARLINK-48 4.0 18:21:29 10° WNW 18:25:17 49° N 18:28:00 17° ENE
STARLINK-1052 3.9 18:21:43 10° SW 18:25:43 52° SSE 18:28:35 18° ENE
STARLINK-61 3.9 18:22:04 10° W 18:25:55 56° N 18:28:49 17° ENE
ARGOS 3.9 18:21:35 10° SE 18:26:22 33° ENE 18:31:10 10° N
STARLINK-36 3.7 18:22:40 10° WSW 18:26:42 70° NNW 18:29:45 17° ENE
STARLINK-68 3.7 18:24:32 10° W 18:28:34 67° NNW 18:31:32 17° ENE
CSL-04 Rocket 3.9 18:23:58 10° SSE 18:29:30 78° WSW 18:35:00 10° NNW
STARLINK-63 3.7 18:26:05 10° W 18:30:06 67° NNW 18:33:01 18° ENE
Cosmos 2263 4.2 18:25:42 10° SSW 18:31:26 69° ESE 18:37:10 10° NNE
STARLINK-35 3.7 18:27:39 10° W 18:31:40 68° NNW 18:34:31 19° ENE
BREEZE-M DEB (TANK) 3.6 18:29:08 10° W 18:31:44 53° SSW 18:37:09 12° ESE
Cosmos 1346 Rocket 2.8 18:28:22 10° S 18:32:17 59° E 18:36:12 10° NNE
STARLINK-51 3.7 18:29:19 10° W 18:33:20 67° NNW 18:36:07 19° ENE
STARLINK-43 3.5 18:30:54 10° WNW 18:34:35 62° NNE 18:36:38 24° E
STARLINK-1023 3.1 18:31:38 10° W 18:34:49 65° NNW 18:36:37 23° ENE
STARLINK-30 3.8 18:30:59 10° W 18:35:00 66° NNW 18:37:42 20° ENE
STARLINK-1033 3.7 18:31:34 10° SW 18:35:38 59° SSE 18:38:07 22° ENE
YAOGAN 1 3.4 18:31:46 10° S 18:36:00 55° W 18:40:16 10° NNW
STARLINK-72 3.8 18:32:38 10° W 18:36:39 65° NNW 18:39:17 20° ENE
USA 186 3.4 18:38:08 14° NNE 18:38:08 14° NNE 18:38:49 10° NNE
Nadezhda 4 Rocket 4.5 18:31:38 10° N 18:37:29 39° ENE 18:43:20 10° SE
STARLINK-50 3.8 18:34:17 10° W 18:38:18 64° NNW 18:40:52 21° ENE
Cosmos 1633 Rocket 3.9 18:35:45 10° SSW 18:39:59 52° WNW 18:44:15 10° N
STARLINK-59 3.8 18:36:05 10° W 18:40:04 63° NNW 18:42:34 22° ENE
Cosmos 44 Rocket 3.5 18:35:34 10° NNW 18:40:09 48° NE 18:42:58 22° ESE
Cosmos 1464 Rocket 4.2 18:34:31 10° SSE 18:40:33 47° E 18:46:37 10° NNE
STARLINK-56 3.8 18:37:36 10° W 18:41:36 63° NNW 18:44:02 22° ENE
STARLINK-1035 3.7 18:38:34 10° SW 18:42:48 70° SSE 18:45:13 25° ENE
STARLINK-73 3.8 18:39:17 10° W 18:43:17 62° NNW 18:45:39 23° ENE
CRYOSAT 2 4.5 18:39:50 10° S 18:44:44 82° W 18:49:41 10° N
STARLINK-38 3.8 18:40:58 10° W 18:44:57 61° NNW 18:47:15 24° ENE
STARLINK-1024 3.6 18:41:29 10° SW 18:45:35 67° SSE 18:47:43 27° ENE
Cosmos 2297 Rocket 3.5 18:41:38 10° N 18:46:03 22° NE 18:47:51 19° ENE
STARLINK-65 3.8 18:42:36 10° W 18:46:36 61° NNW 18:48:49 24° ENE
Aureole 2 Rocket 3.8 18:45:23 10° SW 18:47:46 29° WNW 18:50:14 10° N
NOSS 3-1 (C) 3.9 18:42:24 10° WSW 18:48:00 61° NW 18:54:38 10° NE
Cosmos 1933 Rocket 3.4 18:43:46 10° S 18:48:10 80° E 18:52:34 10° NNE
STARLINK-53 3.9 18:44:21 10° W 18:48:20 59° NNW 18:50:29 25° ENE
Cosmos 2285 Rocket 4.4 18:43:40 10° NNW 18:49:59 66° WSW 18:56:18 10° S
STARLINK-33 3.7 18:48:49 10° WNW 18:51:59 44° N 18:53:06 30° NE
Meteor 1-20 Rocket 4.1 18:47:23 10° S 18:52:47 65° E 18:58:18 10° NNE
STARLINK-1007 3.4 18:50:09 10° W 18:53:21 55° NNW 18:54:29 34° NE
STARLINK-1027 3.6 18:49:10 10° WSW 18:53:25 82° SSE 18:55:28 30° ENE
Meteor 1-18 Rocket 4.3 18:48:02 10° N 18:53:57 67° ENE 18:59:46 10° SSE
STARLINK-55 3.7 18:50:50 10° WNW 18:54:00 43° N 18:55:01 32° NE
STARLINK-66 3.8 18:50:54 10° WNW 18:54:04 43° N 18:55:06 32° NE
STARLINK-1032 3.5 18:51:23 10° WSW 18:55:31 76° SSE 18:57:17 33° ENE
STARLINK-28 3.8 18:52:31 10° WNW 18:55:39 43° N 18:56:36 33° NE
Cosmos 405 2.8 18:52:16 10° N 18:55:49 69° ENE 18:58:22 18° SSE
STARLINK-80 3.7 18:52:08 10° WNW 18:55:54 55° NNE 18:57:10 36° ENE
Cosmos 2221 Rocket 4.3 18:52:33 10° N 18:56:36 31° ENE 18:56:58 30° E
COSMOS 2487 2.4 18:53:20 10° NNW 18:56:49 80° WSW 18:59:29 16° SSE
ADEOS Rocket 3.6 18:49:02 10° NNE 18:56:53 89° ESE 19:04:35 10° SSW
STARLINK-58 3.8 18:53:26 10° W 18:56:55 49° N 18:58:11 32° NE
Cosmos 1943 Rocket 3.1 18:52:34 10° SW 18:57:58 49° NW 19:03:22 10° NNE
STARLINK-62 3.8 18:55:09 10° W 18:58:36 49° N 18:59:48 33° NE
MOS 1 4.2 18:54:00 10° SSE 18:59:37 70° ENE 19:05:15 10° NNW
STARLINK-34 3.8 18:56:46 10° W 19:00:14 48° N 19:01:22 34° NE
CZ-2C R/B 3.3 18:54:42 10° SSE 19:00:23 58° ENE 19:05:57 10° N
STARLINK-1011 3.5 18:56:21 10° WSW 19:00:29 80° SSE 19:02:03 37° ENE
Cosmos 2034 Rocket 4.1 18:55:13 10° SSE 19:01:04 47° E 19:06:56 10° NNE
Okean 1 3.2 18:57:37 10° N 19:01:39 67° ENE 19:04:38 17° SSE
Timation 2 Rocket 4.2 18:54:50 10° NNW 19:01:44 72° NE 19:07:09 17° SE
Lacrosse 5 rocket 2.6 18:58:06 10° NW 19:02:16 34° N 19:04:00 26° NE
Cosmos 468 Rocket 4.2 18:57:22 10° S 19:02:25 47° ESE 19:07:31 10° NNE
STARLINK-42 3.7 18:59:30 10° WNW 19:02:38 43° N 19:03:16 37° NNE
Cosmos 1515 4.5 19:00:06 10° N 19:03:00 33° NE 19:03:00 33° NE
Cosmos 2227 Rocket 3.3 19:00:07 10° NNW 19:04:48 26° NE 19:05:52 24° ENE
Cosmos 1340 3.7 19:01:22 10° SSW 19:04:59 46° WNW 19:08:39 10° N
Genesis I 4.2 19:01:50 10° NNW 19:05:20 30° NE 19:05:28 30° NE
STARLINK-1036 3.5 19:01:20 10° WSW 19:05:29 84° SSE 19:06:51 41° ENE
BREEZE-M DEB (TANK) 2.6 19:03:19 10° W 19:05:45 77° S 19:06:06 62° SE
HJ-1C 4.4 19:04:17 10° S 19:07:29 47° W 19:10:43 10° NNW
STARLINK 1040 3.4 19:04:56 10° W 19:07:38 41° N 19:07:42 41° N
SPOT 3 Rocket 3.7 19:05:25 27° SE 19:07:54 49° ENE 19:12:56 10° N
Okean 3 4.3 19:04:13 10° N 19:07:24 31° NE 19:07:24 31° NE
STARLINK-1010 3.5 19:04:56 10° W 19:08:08 50° N 19:08:41 44° NNE
STARLINK-1044 3.5 19:06:18 10° WSW 19:10:27 88° SSE 19:11:37 46° ENE
Meteor 1-14 Rocket 4.1 19:05:55 10° S 19:11:20 61° E 19:16:50 10° NNE
STARLINK-1031 3.5 19:07:36 10° WSW 19:11:39 85° NNW 19:12:46 47° ENE
Meteor 2-11 Rocket 4.3 19:06:04 10° S 19:12:09 74° E 19:18:13 10° NNE
STARLINK-1022 4.5 19:08:36 10° SSW 19:12:00 33° SSE 19:12:00 33° SSE
Cosmos 1898 Rocket 3.4 19:07:55 10° NNW 19:13:08 90° NE 19:17:01 18° SSE
Lacrosse 4 Rocket 4.2 19:10:46 10° WNW 19:13:17 15° NNW 19:15:50 10° N
Gbstr 26 Del rocket 3.5 19:10:04 10° SW 19:14:01 43° SE 19:14:28 41° SE
STARLINK-1029 3.4 19:12:49 10° W 19:15:55 51° NNW 19:16:03 51° N
STARLINK-1042 4.4 19:13:28 10° SSW 19:16:46 35° SSE 19:16:46 35° SSE
STARLINK-24 4.0 19:14:17 10° W 19:18:13 52° N 19:19:06 43° NE
Resurs 1-3 4.1 19:19:42 40° NE 19:19:42 40° NE 19:23:27 10° N
STARLINK-1037 3.5 19:16:11 10° WSW 19:20:20 84° NNW 19:21:08 57° ENE
NOSS 2-3 (E) 4.3 19:17:22 10° WSW 19:21:46 60° NW 19:25:51 17° NE
STARLINK-1056 4.4 19:18:23 10° SSW 19:21:33 36° SSE 19:21:33 36° SSE
Cosmos 1092 Rocket 4.1 19:16:03 10° N 19:22:15 52° ENE 19:24:43 34° SE
STARLINK-1016 3.7 19:20:26 10° W 19:23:34 46° NNW 19:23:34 46° NNW
STARLINK-1008 3.7 19:20:51 10° W 19:24:02 47° N 19:24:02 47° N
USA 234 3.7 19:21:54 30° ENE 19:24:56 51° NNE 19:31:12 10° WNW
STARLINK-1059 3.6 19:21:15 10° WSW 19:25:24 81° NNW 19:25:59 64° NE
STARLINK-1054 4.5 19:23:18 10° SW 19:26:20 36° S 19:26:20 36° S
STARLINK-1025 3.8 19:24:13 10° W 19:27:13 45° NNW 19:27:13 45° NNW
Cosmos 1763 Rocket 3.4 19:22:41 10° S 19:27:50 62° ESE 19:33:04 10° NNE
STARLINK-81 4.0 19:23:58 10° W 19:27:55 51° N 19:28:23 48° NNE
STARLINK-75 4.0 19:25:18 10° WNW 19:28:18 43° NNW 19:28:18 43° NNW
Cosmos 1656 Rocket 3.9 19:23:06 10° SW 19:28:37 70° WNW 19:34:16 10° NNE
STARLINK-1017 3.9 19:25:54 10° W 19:28:50 44° NNW 19:28:50 44° NNW
Cosmos 2219 3.5 19:23:36 10° NNW 19:29:10 47° NE 19:29:58 44° ENE
STARLINK-22 4.0 19:26:11 10° WNW 19:29:06 42° NNW 19:29:06 42° NNW
Meteor 2-4 Rocket 3.7 19:23:41 10° N 19:29:35 67° ENE 19:32:12 34° SSE
Meteor 1-19 Rocket 4.3 19:23:46 10° NNW 19:29:38 83° W 19:35:17 10° S
STARLINK-54 4.0 19:25:52 10° W 19:29:48 51° N 19:30:10 49° NNE
STARLINK-1057 3.6 19:26:15 10° WSW 19:30:24 77° NNW 19:30:47 69° NNE
STARLINK-41 4.0 19:27:39 10° WNW 19:30:31 41° NNW 19:30:31 41° NNW
NOSS 3-2 (A) 4.2 19:24:08 10° NW 19:31:13 54° NE 19:34:00 38° E
STARLINK-77 4.0 19:27:18 10° W 19:31:14 51° N 19:31:34 49° NNE
Cosmos 1570 Rocket 4.4 19:26:17 10° S 19:30:09 42° SE 19:30:09 42° SE
NOSS 3-2 (C) 4.4 19:26:00 10° NW 19:32:49 44° NNE 19:35:19 35° ENE
STARLINK-25 4.0 19:28:58 10° W 19:32:55 51° N 19:33:10 50° N
STARLINK-1048 4.1 19:31:00 10° W 19:33:44 41° NNW 19:33:44 41° NNW
STARLINK-71 4.0 19:30:53 10° W 19:34:49 50° N 19:34:58 50° N
STARLINK-1034 3.6 19:31:13 10° WSW 19:35:22 74° NNW 19:35:33 72° N
STARLINK-1049 4.2 19:32:43 10° W 19:35:23 40° NW 19:35:23 40° NW
STARLINK-79 4.0 19:32:17 10° W 19:36:13 51° N 19:36:20 50° N
Cosmos 2195 Rocket 4.5 19:31:24 10° N 19:37:25 55° ENE 19:38:26 50° ESE
Resurs 01 Rocket 2.6 19:38:52 34° NNE 19:38:52 34° NNE 19:41:45 10° N
STARLINK-1051 4.3 19:34:30 10° W 19:37:05 39° NW 19:37:05 39° NW
STARLINK-78 4.0 19:33:58 10° W 19:37:55 50° N 19:37:57 50° N
STARLINK-1028 4.3 19:34:54 10° W 19:37:30 39° NW 19:37:30 39° NW
STARLINK-64 4.2 19:35:37 10° WNW 19:38:37 43° NNW 19:38:37 43° NNW
STARLINK-57 4.1 19:35:45 10° W 19:39:38 50° N 19:39:38 50° N
STARLINK-1021 4.4 19:36:41 10° W 19:39:12 37° NW 19:39:12 37° NW
STARLINK-1068 3.7 19:36:13 10° WSW 19:40:19 71° NNW 19:40:19 71° NNW
STARLINK-26 4.2 19:37:18 10° WNW 19:39:52 42° NW 19:39:52 42° NW
STARLINK-49 4.1 19:37:16 10° W 19:41:07 50° N 19:41:07 50° N
STARLINK-1019 4.5 19:38:29 10° WNW 19:40:55 36° NW 19:40:55 36° NW
Cosmos 1602 4.2 19:37:58 10° SSW 19:41:49 60° WNW 19:45:39 10° N
STARLINK-27 4.1 19:38:56 10° W 19:42:42 50° NNW 19:42:42 50° NNW
STARLINK-74 4.2 19:40:36 10° WNW 19:44:17 49° NNW 19:44:17 49° NNW
Ariane Rocket 4.3 19:39:56 10° SSW 19:44:41 39° W 19:49:28 10° NNW
Okean 1-7 4.4 19:41:52 10° NNW 19:45:53 38° W 19:49:54 10° SSW
STARLINK-39 4.2 19:42:16 10° WNW 19:45:53 49° NNW 19:45:53 49° NNW
NOSS 3-1 (A) 4.3 19:41:00 10° WSW 19:46:34 46° NNW 19:52:11 14° NE
SL-08 RB Rocket 3.7 19:45:57 63° S 19:46:36 78° WSW 19:51:07 10° NNW
SJ-6B 3.4 19:46:43 50° WSW 19:47:01 52° W 19:50:44 10° NNW
STARLINK-31 4.3 19:43:56 10° WNW 19:47:29 48° NNW 19:47:29 48° NNW
Cosmos 2369 Rocket 3.9 19:43:19 10° WSW 19:48:19 31° NW 19:53:22 10° NNE
Cosmos 2263 Rocket 4.3 19:45:43 10° N 19:48:22 13° NNE 19:48:31 13° NNE
Lacrosse 5 3.0 19:44:45 10° SSW 19:47:37 31° S 19:47:37 31° S
STARLINK-69 4.3 19:45:48 10° WNW 19:49:14 47° NNW 19:49:14 47° NNW
STARLINK-1060 4.0 19:46:11 10° W 19:49:53 61° NW 19:49:53 61° NW
STARLINK-21 4.4 19:47:16 10° WNW 19:50:40 46° NNW 19:50:40 46° NNW
MetOp-A 4.0 19:50:10 59° SSE 19:51:15 87° ENE 19:56:39 10° NNW
ARGOS Delta rocket 3.9 19:51:19 52° SSW 19:52:09 65° W 19:56:37 10° NNW
CENTAUR R/B 3.5 19:45:20 10° NW 19:52:44 48° NNE 19:54:46 41° ENE
STARLINK-45 4.4 19:49:09 10° WNW 19:52:27 45° NNW 19:52:27 45° NNW
STARLINK-70 4.5 19:50:45 10° WNW 19:53:59 44° NNW 19:53:59 44° NNW
STARLINK-1030 4.2 19:51:13 10° W 19:54:42 54° WNW 19:54:42 54° WNW
Meteor 1-13 Rocket 4.1 19:52:48 10° N 19:58:45 80° ENE 19:59:12 74° SE
SJ 16-02 2.8 19:55:11 10° NW 19:59:13 35° WSW 20:00:55 25° SW
STARLINK-1020 4.5 19:56:12 10° W 19:59:27 49° WNW 19:59:27 49° WNW
Cosmos 1869 Rocket 4.4 19:56:09 10° SSW 20:00:25 49° WNW 20:04:42 10° N
H-2A R/B 3.4 19:59:18 10° SSW 20:04:20 40° W 20:09:29 10° NNW
ATLAS 3B R/B 3.4 19:58:24 10° NW 20:04:31 36° NNE 20:05:09 35° NE
Cosmos 1627 Rocket 4.3 19:59:17 10° N 20:05:33 79° E 20:05:55 76° ESE
ARGOS 4.2 20:01:41 12° S 20:06:30 44° W 20:11:43 10° NNW
Cosmos 1937 Rocket 4.4 20:01:49 10° NNW 20:06:50 46° WSW 20:08:35 34° SSW
Cosmos 2026 Rocket 4.0 20:23:27 10° NNW 20:29:34 76° W 20:29:34 76° W
USA 238 DEB 3.7 20:23:15 10° NW 20:30:27 87° SW 20:30:43 84° SSE
USA 238 3.7 20:23:21 10° NW 20:30:33 88° SW 20:30:47 84° SSE
Cosmos 2297 Rocket 2.6 20:25:11 10° NNW 20:29:41 58° NNW 20:29:41 58° NNW
Lacrosse 5 rocket 3.5 20:37:26 10° NW 20:39:39 28° NW 20:39:39 28° NW
Cosmos 2227 Rocket 3.1 20:43:48 10° NNW 20:47:42 45° NW 20:47:42 45° NW
BREEZE-M DEB (TANK) 4.1 20:44:15 10° WNW 20:56:33 59° W 20:56:33 59° W
USA 234 3.7 21:09:15 56° NW 21:09:15 56° NW 21:14:15 10° WNW
Resurs 01 Rocket 4.4 21:16:26 16° NW 21:16:26 16° NW 21:17:44 10° NW
NOSS 3-2 (C) 4.4 21:16:54 10° NW 21:22:47 58° WNW 21:22:47 58° WNW
Cosmos 2263 Rocket 4.4 21:28:32 10° NNW 21:30:13 19° N 21:30:13 19° N
CENTAUR R/B 3.7 21:36:05 10° NW 21:41:57 53° WNW 21:41:57 53° WNW
ATLAS 3B R/B 4.1 21:49:06 10° NW 21:52:24 32° NW 21:52:24 32° NW
